Wall of Fame

Het Mysterie van de Haven

Groepsnaam Tijd over Aantal hints
1 Zegwat 01:11:13 6
2 Bijna sexy 01:09:12 0
3 Toevankjes 01:08:34 1
4 Majomiri 01:07:15 0
5 autobuddys 01:06:54 0
6 Vogelbuurt 01:05:09 0
7 Blekbal 01:04:20 4
8 Bestuur Panacea 2018 01:03:41 0
9 Da potato family 01:00:30 3
10 De Flitsmeisters 01:00:23 1
11 SmartBarth 00:59:09 0
12 TOG op pad 00:58:30 0
13 Bull 00:56:18 0
14 De Noorderlingen 2 00:55:27 2
15 The Turning Bitches 00:55:15 0
16 De withaartjes 00:54:37 0
17 Jozuahaaltdesnacks 00:54:18 0
18 Spruitjes 00:54:06 1
19 MAK Search Team 00:51:54 1
20 VEM 00:51:36 2
21 The Black Purrrr 00:51:21 3
22 Marina's Bultjes 00:50:37 0
23 Rijn 00:49:57 3
24 Commissaris Blauw 32 00:49:54 0
25 De Leo’s 00:49:40 0
26 Clown Kees 00:49:35 0
27 De wilde Vaart 00:48:42 0
28 Bolk 00:48:03 0
29 zalk 00:46:57 2
30 Team Rijnsburg 00:46:50 0
31 Tukkers Nieland 00:46:41 1
32 GreenDucks 00:46:32 2
33 The Escapistaches 00:46:30 0
34 Doarseveld 00:46:14 3
35 De avocado's 00:46:01 1
36 FC RISC 00:45:56 0
37 De Engeltjes 00:45:45 3
38 Hazelnootjes 00:45:06 0
39 De Nachtbrakers 00:44:54 1
40 HoogeVenlo 00:44:39 2
41 Hsj 00:44:29 10
42 TeamXBeks 00:44:25 5
43 M&M 00:43:52 3
44 De van der Bentjes 00:43:50 7
45 te pakk'n 00:43:47 0
46 Boekenpootje 00:43:18 1
47 De Akkermannen 00:43:13 1
48 Wenterse genieters 00:42:42 1
49 De drie koffieriers 00:42:42 1
50 Zijlmaatjes 00:42:27 4
51 Koeienlovers 00:41:43 2
52 De dikke bankzitters 00:41:42 4
53 Bungalow Xxx 00:41:41 0
54 De wijsneuzen 00:41:29 1
55 Caljé 00:41:20 5
56 Groepje 00:40:58 2
57 MvAVermaak.nl 00:40:53 1
58 Team Detective 00:40:46 0
59 Paashaas 00:40:31 5
60 Familyfuntime 00:40:04 1
61 Bro’s before ho’s 00:40:03 0
62 ThoJo 00:39:47 2
63 SiJiSen 00:39:15 1
64 De sjeezers 00:39:11 1
65 Goutier 00:38:48 1
66 Nijzinkbende 00:38:47 6
67 ReSuNo 00:38:32 0
68 hartogjes 00:38:15 2
69 Chicks b4 dicks 00:37:39 1
70 Kroontjes 00:37:35 0
71 Team de Vrueh 00:36:54 3
72 Framily 00:36:50 3
73 TeamTeunis 00:36:47 2
74 Boevee 00:36:36 3
75 De Dekkertjes 00:36:11 1
76 Newcourts 00:36:01 3
77 Captains Hoekstra 00:36:01 0
78 Louise & Mike 00:35:54 10
79 De waalie 00:35:52 3
80 De Hurms 00:35:38 1
81 De domme koeien 00:35:36 0
82 Schapenkoppen 00:35:06 2
83 Bouwhuisjes+oma 00:35:01 0
84 Harte-Spijker 00:34:59 7
85 De koele koes 00:34:42 4
86 De zwemmende eendjes 00:34:33 1
87 Nijpjes 00:34:27 12
88 DeBeren 00:34:09 4
89 SMTL 00:34:08 1
90 Oordjes 00:33:58 5
91 NPGvanDiemers 00:33:56 2
92 110 00:33:53 4
93 De Krakers 00:33:53 2
94 Warlegganteam NL 00:33:52 1
95 Team Ellende 00:33:49 3
96 Niet te kisten 00:33:46 1
97 Puttenaren 00:33:44 2
98 The Streamers 00:33:38 9
99 Heemskerk 00:33:17 9
100 de huismerels 00:33:11 7
101 B100 00:32:57 0
102 Bremmertjes 00:32:35 4
103 Zwannies 00:32:27 5
104 TEMPVERM 00:32:16 6
105 BadHairDay 00:32:02 1
106 Dewestfriezen 00:31:54 7
107 Sinqo H 00:31:44 3
108 De bijtjes🐝 00:31:34 11
109 The Highlanders 00:31:27 8
110 de Baaijvlaaiers 00:31:23 1
111 Vondertjes 00:31:20 0
112 De suppers ut Fryslan 00:31:12 6
113 Jong&co 00:30:56 1
114 love box 00:30:48 0
115 Vrijspeciaal 00:30:45 1
116 Team 63 00:30:41 4
117 De hunebedden 00:30:23 0
118 De GilseSchans 00:30:20 7
119 Bellista 00:30:19 2
120 Familie Bolte 00:30:09 0
121 De pronkies 00:30:02 10
122 Uniekegroep 00:30:02 3
123 Team bollo 00:29:53 0
124 Perdokkies 00:29:44 2
125 Non-Sukkies 00:29:43 5
126 De bende 00:29:37 8
127 De Snuggles 00:29:29 5
128 InvestigationCheck 00:29:10 0
129 Binkies 00:28:35 8
130 De Konings 00:28:28 3
131 Lilydora 00:28:26 3
132 De Zilvervloot 00:28:15 1
133 Coronettes 00:28:15 2
134 Huipies 00:28:08 5
135 Dijkstra 00:28:05 4
136 Tante Sjaan 00:28:03 3
137 MeijHutje 00:28:00 6
138 BeMaiWil 00:27:53 1
139 zooitje ongeregeld 00:27:36 4
140 Sirolf21 00:27:36 1
141 Hotties 00:27:34 3
142 Limi 00:27:31 2
143 Kuipertjes😎 00:27:21 0
144 Faasjes 00:26:56 5
145 Havenhunters 00:26:55 8
146 Ome Jan 00:26:54 2
147 Wildenbeest 00:26:25 8
148 Helder 00:26:21 3
149 Fam.Intveen 00:26:08 1
150 Op de camping! 00:26:07 3
151 De Nicolaaitjes 00:25:59 7
152 Alphen45 00:25:57 0
153 De Vippies 00:25:53 1
154 Ma Flodder 00:25:53 1
155 De Bellies 00:25:51 3
156 Coole gang 00:25:47 4
157 Aa 00:25:31 11
158 Balkum de gekste 00:25:28 1
159 De Smurfen 00:25:23 3
160 Onderzoekers 00:25:20 1
161 De abners 00:25:08 0
162 Hendrik IV 00:25:04 0
163 Braamkes 00:24:43 1
164 Maaskantjes 00:24:27 1
165 Kamer 237 00:24:17 9
166 ReRe 00:24:11 2
167 Dongdong 00:24:02 3
168 de Japies 00:23:59 9
169 De Enkellikkers 00:23:46 0
170 Njord 00:23:26 5
171 Guardians of the galaxy 00:23:07 4
172 De B.O-veld bende 00:23:06 1
173 The bomb 00:22:51 0
174 Faijdherbe 00:22:45 6
175 De rare langers 00:22:40 3
176 Leidyk 00:22:36 2
177 Liever te dik in de kist 00:22:31 1
178 Superspeurders 00:22:13 8
179 Wei 00:22:08 3
180 Boschwachters 00:22:00 3
181 Westra 00:21:56 3
182 Langkawi 2 00:21:55 2
183 Taksi chauffeur 00:21:54 3
184 Compleet 00:21:43 1
185 SjaMaPaCa 00:21:31 2
186 Bartje 00:21:24 3
187 Kesseltjes 00:21:23 1
188 Spijkermannetjes 00:21:19 11
189 Jomomabastis 00:21:10 4
190 Casa Peters 00:21:08 2
191 Bende van ellende 00:21:05 3
192 De Wiergo’s 00:21:05 3
193 Hioany 00:21:02 5
194 Hut(s) 321 00:20:59 6
195 Fonsie 00:20:57 5
196 DjesModz 00:20:51 12
197 Van Tienen 00:20:45 1
198 KatrienDuckies 00:20:45 3
199 Smelikjes 00:20:40 1
200 Niensel 00:20:40 1
201 Kwibus&co 00:20:39 1
202 DIJAMERK 00:20:37 6
203 Verheugen 00:20:33 4
204 Bossche Bollen 00:20:31 8
205 Sijmons en co 00:20:30 5
206 High Elbow 00:20:30 1
207 Burgertjes 00:20:29 8
208 JJC en mama’s 00:20:26 9
209 De 4 biggetjes 00:20:11 0
210 Hamoen 00:20:09 4
211 Tokkie’s 00:19:59 12
212 Smits 00:19:58 2
213 Booem 00:19:49 0
214 TIKTOKSQUAD 00:19:45 4
215 Fam Havering 00:19:44 1
216 202 00:19:37 2
217 Mulletjes 00:19:35 3
218 Buurtjes!! 00:19:33 0
219 Alle ballen op Royston 00:19:26 5
220 Wesseltjes 00:19:24 1
221 Piraten 00:19:18 5
222 De grote Kak 00:19:09 0
223 Voyageurs 00:19:03 1
224 Stresskippen 00:19:02 9
225 Rendiertjes 00:18:58 1
226 Dallies 00:18:56 6
227 Carr 00:18:33 2
228 De Hermsehuis band 00:18:32 0
229 Wijker 00:18:28 7
230 Zus en co 00:18:28 3
231 the mirrors 00:18:26 5
232 MIRACA 00:18:24 3
233 De Boertjes 00:18:06 4
234 De puzzelaars 00:18:05 5
235 Beerze Rangers 00:17:50 2
236 DeVuggies5 00:17:47 9
237 peter en de koele kikkers 00:17:35 4
238 VandeRegen 00:17:33 4
239 Dejegerdingentjes 00:17:30 1
240 Lekkende balonnen 00:17:29 8
241 Poldermannen 00:17:28 0
242 Fanatiekelingen 00:17:21 3
243 Kinderman 00:17:17 2
244 D3Musketiers 00:17:17 1
245 Schut 00:17:14 0
246 DE RORO'S 00:17:13 3
247 Sikking 00:17:09 8
248 Koerselman 00:17:09 3
249 De 3 zoetjes 00:17:08 1
250 Bruss-apen 00:17:07 1
251 JCL 00:16:56 11
252 Reddingsboeien 00:16:49 4
253 Warm 00:16:47 5
254 Peters 00:16:43 3
255 Raatelandjes 00:16:34 2
256 Kuuperties 00:16:33 4
257 Tjommie 00:16:31 7
258 de Steentjes 00:16:27 2
259 Beilerbofkontjes 00:15:58 3
260 Oefoefoe’s 00:15:57 9
261 Tinyhousegang 00:15:49 10
262 Boze Belgen 00:15:47 2
263 #Besties 00:15:47 0
264 Galenkamp 00:15:39 2
265 SterrenWorst 00:15:39 12
266 De Wellentjes 00:15:27 0
267 de Graaf 00:15:25 11
268 Ava 00:15:21 5
269 Koele klippers 00:15:19 6
270 B-722 00:15:16 6
271 The big 6 00:15:15 2
272 Aikes 00:15:15 3
273 De Teuters 00:15:12 2
274 Poeremetator 00:15:11 3
275 Familie Vermeer 00:15:11 1
276 Charlie 00:15:08 2
277 Sneekjes 00:15:05 4
278 van Leeuwen Prutsers 00:15:05 4
279 klavertjevier 00:15:01 8
280 NOXOLOGEN 00:14:58 1
281 Bobingas 00:14:51 5
282 JanEnSophie 00:14:47 3
283 Team Floepie 00:14:41 3
284 208ers 00:14:35 2
285 De Raatgevers weten raad 00:14:35 2
286 Frandré 00:14:32 2
287 Paco 00:14:32 2
288 Dombos 00:14:31 3
289 WarSpoor 00:14:29 3
290 Jongdek 00:14:26 3
291 Fultonstraat 00:14:26 3
292 Plukkestijn 00:14:22 1
293 Burger 00:14:11 2
294 033 00:14:11 9
295 Team Roderick 00:14:10 1
296 Klamer 00:14:04 0
297 Haringkoppen 00:13:55 4
298 Otters 00:13:48 4
299 Lisan 00:13:44 5
300 Pansier 00:13:40 8
301 De Pansyhansy's 00:13:38 2
302 Bevers 00:13:38 10
303 M&L 00:13:30 2
304 De Steentjes 00:13:17 7
305 De Ketraket 00:13:11 4
306 007 00:13:09 1
307 De Kassies 00:13:08 6
308 #TeamZuurkool 00:12:54 6
309 De Snelle Bananen 00:12:41 5
310 Lammetjes 00:12:36 4
311 Sissies 00:12:36 6
312 VersluisRotterdam 00:12:30 1
313 Aapie&draakie 00:12:29 1
314 De winnaars 00:12:28 6
315 Janjansendekinderen 00:12:26 3
316 Ellerbroekies 00:12:23 1
317 Halimaanrilote 00:12:22 2
318 Team Pony 00:12:21 3
319 Wognumse faalhazen 00:12:16 6
320 Postomaatjes 00:12:11 3
321 Kwakkenvos 00:12:04 3
322 van Bodegraven 00:12:00 12
323 escapies 00:11:57 5
324 Mulderinho's 00:11:57 4
325 Pull My Finger 00:11:54 2
326 De Vogelaartjes 00:11:45 7
327 Fam Smit 00:11:37 2
328 De F16s 00:11:36 1
329 Kruisjes 00:11:27 8
330 Gento’s 00:11:23 2
331 Druktemakers 00:11:22 2
332 Wietse en Els 00:11:22 4
333 De Kamelenrijders 00:11:16 2
334 DonenMaris 00:11:11 2
335 Groep 5 00:11:08 12
336 PLAETENAEREN 00:11:03 6
337 Bouwmeester 00:11:01 3
338 De Plekkenpolletjes 00:10:53 7
339 the Rabbits 00:10:50 5
340 Lm 00:10:48 4
341 DeJagerz 00:10:47 5
342 Nieuwehuisjes 00:10:43 6
343 JETI 00:10:38 6
344 Kruitjes 00:10:35 1
345 Tollies 00:10:35 5
346 Aardappelen in blik 00:10:35 4
347 Caittaathalathal 00:10:31 0
348 Schipsep 00:10:26 0
349 MiranChris 00:10:21 2
350 Houtense Hunters 00:10:16 2
351 Oons moe 00:10:15 2
352 The gold diggers 00:10:08 4
353 hippoo en kikker 00:10:02 4
354 F.L.A.M. 00:10:01 2
355 De Machies 00:09:54 7
356 Jongkies 00:09:38 5
357 AltUndNeu 00:09:33 12
358 Rema 00:09:32 2
359 Harmsie 00:09:30 5
360 Velema 00:09:27 0
361 De kampioenen 00:09:26 1
362 Stollies 00:09:22 1
363 Outjes 00:09:18 2
364 TukTuks 00:09:13 2
365 LUKENS 00:09:11 7
366 Hendriksen 00:08:53 1
367 Inspector Gadget 2.0 21 00:08:50 3
368 Meulenrabbitmeer 00:08:50 4
369 Foute gasten 00:08:43 2
370 Flanellen Willetje 00:08:38 5
371 Bollo Fanclub 00:08:37 4
372 Dipshitties 00:08:30 5
373 Vredenbregt 00:08:30 4
374 MWSK 00:08:28 8
375 Slowliving 00:08:28 2
376 speurneusjanssen 00:08:22 4
377 Pip&Puk 00:08:17 8
378 Team kist 00:08:14 1
379 Jens is jarig 00:08:14 8
380 Sasjormad 00:08:07 11
381 De struis 00:08:03 9
382 Kaaijts 00:08:03 3
383 DeKrakers 00:08:02 4
384 Fundering 00:07:59 6
385 Peter is Beter 00:07:43 0
386 Welling 00:07:41 1
387 Hoi 00:07:40 2
388 Westerhaar1 00:07:37 0
389 Dory 00:07:37 7
390 Agent109 00:07:35 10
391 De van Opstalletjes 00:07:33 6
392 kapiteinLieke 00:07:33 4
393 Stelma 00:07:31 11
394 Arkeeijks 00:07:26 2
395 Hoofdkantoor vlinder 2 00:07:24 10
396 Louwtjes 00:07:22 2
397 Alpaca 00:07:20 7
398 Groep Awkward 00:07:18 0
399 Kaasknabbeltjes 00:07:12 5
400 Koenen-gang 00:07:09 5
401 Oetje toetjes 00:07:01 2
402 De bomhofjes/Vijgjes 00:07:00 6
403 Kromkamp 00:06:55 0
404 BUL 00:06:51 9
405 Wieggers433 00:06:47 8
406 Annemijn slaapt 00:06:41 6
407 Joost mag het weten 00:06:38 7
408 MaNaTiLiLa 00:06:36 4
409 twee keer rechts een keer links 00:06:36 0
410 Kootjes 00:06:23 5
411 Cor's angels 00:06:21 8
412 The Escape Artists 00:06:17 2
413 BOLLO 00:06:13 3
414 De Waardtjes met Appel 00:06:11 3
415 Schaapjes 00:06:07 3
416 Zwahili 00:06:06 0
417 Boumaatjes 00:06:05 12
418 BiZunder 00:06:00 5
419 Simmerdeis 00:05:56 4
420 Van Bollies 00:05:51 4
421 De Starke 5 00:05:47 5
422 Blokkies 00:05:45 12
423 wintersportsmall 00:05:42 5
424 ‘n Krul 00:05:29 0
425 Vugts 00:05:25 3
426 Rcn 00:05:18 1
427 De smikkelbeertjes 00:05:02 6
428 Dubbelsafe 00:04:54 4
429 Wasbo’s 00:04:51 5
430 HugodeGroot 00:04:48 1
431 Het mysterie van de haven 00:04:43 1
432 Wurffies 00:04:42 4
433 Steenberg 00:04:39 11
434 Buffels 00:04:27 9
435 rudolf de king 00:04:21 4
436 De Voorsluijsjes 00:04:19 9
437 Dekcheng 00:04:19 3
438 sewtahani 00:04:18 10
439 deGraaf 00:04:16 12
440 The Secret Hunters 00:04:11 4
441 Kokshoorn 00:04:11 4
442 Berk 00:04:05 5
443 Detectives Die en Buh 00:04:02 1
444 De Valkies 00:03:56 8
445 Klabbertjes 00:03:54 4
446 Moltman 00:03:52 1
447 Kreekies 00:03:48 8
448 fam.Roeling 00:03:34 2
449 Klaar weer... 00:03:32 0
450 bijlkooten 00:03:32 11
451 The Clue Crew 00:03:29 4
452 LR 00:03:28 11
453 De Eekhoorntjes 00:03:23 5
454 Nelson Mandela 00:03:21 1
455 Amendt 00:03:07 12
456 BultEef 00:03:02 4
457 Papagaai61 00:02:59 4
458 Team Putten 00:02:58 5
459 Escape Derckies 00:02:52 3
460 De Tebbertjes 00:02:47 3
461 Hilau 00:02:46 2
462 TJMS 00:02:45 8
463 203 00:02:42 4
464 Kleine Ijsbeer 00:02:31 5
465 Misty en de Detectives 00:02:26 7
466 De Reddertjes 00:02:23 8
467 Ouwerkerkjes 00:02:23 4
468 De Dikkels 00:02:23 3
469 403 00:02:23 7
470 De broemende Gerrie's 00:02:20 7
471 De slimme vogels 00:02:18 10
472 Thomas2.0 00:02:02 6
473 Klein Wassink 00:02:02 3
474 de beste lammies 00:01:58 0
475 LEFF 00:01:51 5
476 Van Dijk 00:01:42 3
477 Possie 00:01:31 4
478 ZIGGYS GANG 00:01:30 12
479 T L Koef 00:01:28 4
480 Bakvissen 00:01:27 11
481 5 Musketiers 00:01:25 7
482 The final braincell 00:01:22 8
483 Joep & Co 00:01:22 5
484 De Nollies 00:01:19 4
485 Kooijtjes 00:01:17 2
486 De Familie Leeuwen 00:01:06 10
487 De Fidders 00:01:05 4
488 SmiemiesDenHaag 00:01:02 6
489 Hemelvaart2021 00:01:01 5
490 Soesclub 00:01:01 10
491 plasjes 00:00:55 5
492 Gommers 00:00:40 4
493 HuisjesCol 00:00:29 8
494 Piratenhiernaast 00:00:28 12
495 Drie musketiers 00:00:26 5
496 sas en mark 00:00:13 1
497 De salamanders 00:00:11 3
498 Grolsch United 00:00:07 5
499 Flodders 00:00:04 8
500 Smeerkerkies 00:00:03 2
501 AapSchaap 00:00:00 9
502 Fam Deelen 00:00:00 8
503 de lollypops 00:00:00 5
504 Duo Lijo 00:00:00 10
505 Daphne & Yoran 00:00:00 1
506 De chicas 00:00:00 11
507 Houdini 00:00:00 6
508 070ers 00:00:00 7
509 Splintertjes 00:00:00 1
510 Limoenje 00:00:00 9
511 Molsnollen 00:00:00 5
512 Van de Gruppies 00:00:00 8
513 WiWiWu 00:00:00 4
514 De Haantjes 00:00:00 6
515 The Big Brains 00:00:00 7
516 De Bende van Ellende 00:00:00 8
517 Kloot 00:00:00 8
518 TILBO’S 00:00:00 3
519 Carrem 00:00:00 8
520 PELLETJES 00:00:00 4
521 Happy familie 00:00:00 2
522 Chickenladies 00:00:00 11
523 de Kleijntjes 00:00:00 5
524 Nieuwenkampjes 00:00:00 9
525 Maissan 00:00:00 6
526 Kruijsjes 00:00:00 6
527 #teamLangedijk 00:00:00 3
528 De Counter Pounters 00:00:00 7
529 Weuke pankenken 00:00:00 9
530 lol masters 00:00:00 12
531 Patjanstantho 00:00:00 11
532 Ruessink 00:00:00 8
533 De Drostjes 00:00:00 2
534 Casa Kaasje 00:00:00 4
535 Dijkjes 00:00:00 6
536 Laserkit 00:00:00 6
537 Schummi's 00:00:00 6
538 Ties 00:00:00 9
539 Verbrugge 00:00:00 9
540 De Oplossers 00:00:00 1
541 Hero’s 00:00:00 0
542 Knuf&Co 00:00:00 8
543 Broer van dijk 00:00:00 4
544 The 8 team 00:00:00 12
545 EEKHOORN 00:00:00 11
546 DeMatrozen 00:00:00 2
547 De Panapadders 00:00:00 3
548 Brandwel 00:00:00 9
549 De Witjes 00:00:00 8
550 Sennes trots 00:00:00 3
551 Scheper2.0 00:00:00 8
552 De doedels 00:00:00 5
553 GoldenGirls_* 00:00:00 2
554 t'veen 00:00:00 5
555 Klunder 00:00:00 10
556 Boelies 00:00:00 6
557 MirMar 00:00:00 6
558 Reddingstas 00:00:00 3
559 310 00:00:00 8
560 De Bosmannetjes 00:00:00 5
561 De Ruijtenbergies 00:00:00 4
562 Walletjes 00:00:00 8
563 Kimme Santie 00:00:00 5
564 Snoepjes 00:00:00 1
565 The Browns 00:00:00 2
566 BeersMill 00:00:00 0
567 FC Max 00:00:00 6
568 LTK 00:00:00 4
569 Tuinstra 00:00:00 11
570 NOAD 00:00:00 10
571 Admiraaltjes 00:00:00 12
572 Fam. Looij 00:00:00 10
573 Schootjes 00:00:00 7
574 Kampeerders 00:00:00 9
575 Hart&Koek 00:00:00 9
576 Fissa 00:00:00 10
577 Smeding 00:00:00 11
578 Offringgons 00:00:00 2
579 De knallende vijf 00:00:00 11
580 Svenpapa 00:00:00 9
581 Schoorl&co 00:00:00 7
582 Foxie Team 00:00:00 6
583 Hamerslag 00:00:00 9
584 Martena 00:00:00 6
585 Fam. Villerius 00:00:00 7
586 Brinkies 00:00:00 6
587 De eekhoorns 00:00:00 7
588 De Pioniers 00:00:00 7
589 JJ 00:00:00 8
590 DeOnderkinnen 00:00:00 2
591 FF 00:00:00 0
592 Spruotjes 00:00:00 0
593 De Jongetjes 00:00:00 8
594 DDN Hattem 00:00:00 5
595 Team Nijenkampies 00:00:00 11
596 De scheetjes 00:00:00 4
597 50 plus Petra 3-3 00:00:00 12
598 Lars & Lars 00:00:00 5
599 Prutsers 00:00:00 0
600 Duuk2021 00:00:00 5
601 Nu wel 00:00:00 2
602 De 4 musketiers 00:00:00 10
603 De Lama's 00:00:00 5
604 Veerhunters 00:00:00 7
605 BIKE 00:00:00 7
606 De terpjes 00:00:00 9
607 De Kolhekjes 00:00:00 7
608 De politiegroep 00:00:00 4
609 De pekelders 00:00:00 10
610 Wijnberg 00:00:00 12
611 Feniks2 00:00:00 10
612 Feniks 00:00:00 0
613 De bergjes 00:00:00 11
614 Triest 00:00:00 10
615 Sander & Kimberley 00:00:00 10
616 Het boeit mij niks 00:00:00 6
617 Veenstra klungels 00:00:00 7
618 Huisje25 00:00:00 6
619 Fam van de Pavert 00:00:00 8
620 Dijksma 00:00:00 12
621 Make that the cat wise 00:00:00 6
622 De veluwe 00:00:00 6
623 Bouvies7 00:00:00 7
624 De Valkjes 00:00:00 1
625 Super Zwaap 00:00:00 11
626 Escape de Wit 00:00:00 6
627 Vosjes 00:00:00 2
628 Commanders 00:00:00 3
629 Tenbrinkjes 00:00:00 10
630 De leeuwtjes 00:00:00 7
631 Lagemaat35 00:00:00 12
632 mumimisi 00:00:00 10
633 FamilieGerdes 00:00:00 6
634 Liever te dik in de .... 00:00:00 2
635 Cf 00:00:00 2
636 Layla's butlers 00:00:00 7
637 Vjennekloetn 00:00:00 5
638 Schoutjes 00:00:00 3
639 de Bruijn 00:00:00 8
640 Floortjes 00:00:00 5
641 Jorrie 00:00:00 5
642 De eekhoorn 00:00:00 10
643 Dokters Beard 00:00:00 3
644 Welages 00:00:00 6
645 Bavianen Wijlens 00:00:00 12
646 Yvonne&Nienke 00:00:00 6
647 Schouten 00:00:00 6
648 Flikken Zeeland 00:00:00 10
649 SVEH 00:00:00 3
650 Langkawi 00:00:00 0
651 Johejo 00:00:00 5
652 SB escape team 00:00:00 4
653 De sjippies 00:00:00 4
654 Veenendaaltjes 00:00:00 2
655 Vogel 00:00:00 5
656 Speklepjes 00:00:00 12
657 Jacobs Struik 00:00:00 12
658 Tiellie-Roetie 00:00:00 7
659 Janine+maris 00:00:00 0
660 DE FRANSWATJES 00:00:00 3
661 Lensies 00:00:00 2
662 TijnIse 00:00:00 7
663 PitoKnerpie 00:00:00 9
664 Team steenuil 00:00:00 5
665 Reinders 00:00:00 3
666 Dupoint 00:00:00 9
667 Team Rob de Ruiter 00:00:00 5
668 royco 00:00:00 1
669 KNALA 00:00:00 5
670 Powerpannenkoeks 00:00:00 11
671 Westerinkjes 00:00:00 4
672 De zes van S 00:00:00 12
673 Nieuwkomers 00:00:00 11
674 The Flunx 00:00:00 10
675 De Doorentjes 00:00:00 3
676 Kersten 00:00:00 12
677 de vandaaltjes 00:00:00 6
678 Banboekids 00:00:00 8
679 Brouwer 00:00:00 12
680 Kokken 00:00:00 12
681 vandermeeralma 00:00:00 11
682 Masterluuk 00:00:00 9
683 Overbeekjes 00:00:00 4
684 Zaalberg 00:00:00 5
685 Liertjes 00:00:00 11
686 Piemels253 00:00:00 8
687 De reizigers 00:00:00 6
688 JH 00:00:00 7
689 Youpyoupyoup 00:00:00 0
690 IJstaartjes 00:00:00 5
691 Dijkxhoorn 00:00:00 6
692 Poeka’s 00:00:00 4
693 Marcel en Lynn 00:00:00 4
694 Hoogesteger 00:00:00 10
695 Hartjes 00:00:00 6
696 De bitterballen 00:00:00 3
697 Kuikentjes 00:00:00 5
698 WES&FEM 00:00:00 6
699 van den Bergjes 00:00:00 9
700 De Joopies 00:00:00 5
701 Billy&Bollie 00:00:00 6
702 Ynemaatjes 00:00:00 7
703 De popcorn poppers 00:00:00 5
704 Prinsjes 00:00:00 12
705 Werfjes 00:00:00 12
706 Mat 00:00:00 0
707 Eekhoorn715 00:00:00 5
708 Lammerts van Bueren 00:00:00 5
709 RB&RB 00:00:00 0
710 De cocaïne hunters 00:00:00 6
711 valkjes 00:00:00 10
712 Hagels 00:00:00 4
713 De Bekertjes 00:00:00 4
714 Christmasteam 00:00:00 6
715 Abcouwers 00:00:00 7
716 Huisje77 00:00:00 7
717 De Chickies 00:00:00 11
718 Veneklaas 00:00:00 12
719 Berend botjes 00:00:00 8
720 De speurneuzen 00:00:00 5
721 Fam Poortman 00:00:00 2
722 Eekhoorntjes 00:00:00 3
723 Kasseltjes 00:00:00 11
724 Snelle Brauny's 00:00:00 5
725 De Rielse beulen 00:00:00 9
726 Beushuis 00:00:00 0
727 HAJ hkz zld 00:00:00 8
728 Viskraam 00:00:00 3
729 josan 00:00:00 6
730 Loetje 00:00:00 7
731 The Rebbels 00:00:00 3
732 Niet voor de poes 00:00:00 3
733 De Brouwertjes 00:00:00 5
734 Malle Henkie 00:00:00 4
735 Mesmetsucces! 00:00:00 6
736 The V-Team 00:00:00 3
737 Wichertjes 00:00:00 0
738 BerlicumPernis 00:00:00 4
739 Boermannetjes 00:00:00 9
740 Fam. Power 00:00:00 8
741 Boris BOEFJES 00:00:00 5
742 FamBijloo 00:00:00 4
743 Mastopjes 00:00:00 10
744 De 713-tjes 00:00:00 12
745 Naccers 00:00:00 6
746 knuppels 00:00:00 3
747 Lamers225 00:00:00 6
748 De Kramers & Robin 00:00:00 6
749 BuEen 00:00:00 3
750 Poortvliet 00:00:00 8
751 Realna 00:00:00 5
752 De Escape-aapjes 00:00:00 10
753 Eilandjes 00:00:00 6
754 De Gorties! 00:00:00 1
755 De Pindakaasjes 00:00:00 4
756 Autoservicekole 00:00:00 6
757 The Boys 00:00:00 8
758 De Lions 00:00:00 8
759 Jaxi 00:00:00 8
760 Family105 00:00:00 5
761 Familieoost! 00:00:00 12
762 OSG 00:00:00 4
763 The Boyz 00:00:00 4
764 TheFamily 00:00:00 11
765 Carpenters 00:00:00 8
766 Diagnaze 00:00:00 5
767 Laajan 00:00:00 8
768 Sundaymorning 00:00:00 8
769 geen leuke familie 00:00:00 4
770 Kwizzwizz 00:00:00 1
771 Team van Muijen 00:00:00 8
772 Amsterdam West 00:00:00 10
773 kabouters 00:00:00 10
774 DePosthoeve 00:00:00 4
775 Weertjes 00:00:00 5
776 James Blond 00:00:00 12
777 Blackies 00:00:00 6
778 De Kr@kers 00:00:00 4
779 Rotterdammers 00:00:00 8
780 MasterTeam 00:00:00 3
781 NiLiMiNiLiMi 00:00:00 10
782 Texeltje 00:00:00 7
783 Huisje59 00:00:00 2
784 Beukenootjes 00:00:00 4
785 Goldies 00:00:00 5
786 Geheime agenten 00:00:00 4
787 Eierpower 00:00:00 5
788 Bitches 00:00:00 3
789 De kolkies 00:00:00 8
790 Test 00:00:00 1
791 Varkenssanne 00:00:00 1
792 Tobies 00:00:00 6
793 Ritzerflits 00:00:00 6
794 Bosjes 00:00:00 10
795 Licky 00:00:00 7
796 De Glasjes 00:00:00 5
797 Erbera216 00:00:00 8
798 ijtjes 00:00:00 2
799 Het droomteam 00:00:00 10
800 Oost 00:00:00 12
801 Boekel//Gols 00:00:00 5
802 Brownies 00:00:00 12
803 RabbitHillJM 00:00:00 3
804 HOLY TRINITY 00:00:00 9
805 De kleine leeuwtjes 00:00:00 8
806 we laten ons niet kisten! 00:00:00 8
807 Versteeg bv 00:00:00 10
808 Korfies 00:00:00 5
809 Droge worsten 00:00:00 5
810 Iepies 00:00:00 8
811 Camping 00:00:00 6
812 Patatje 00:00:00 2
813 Limari 00:00:00 11
814 Sander en Nienke 00:00:00 10
815 Homburg 00:00:00 1
816 FamilyM 00:00:00 5
817 Verbeekjes 00:00:00 11
818 Klimmers min 1 00:00:00 8
819 Wietsmokertje 00:00:00 8
820 Familie van Waes 00:00:00 12
821 Catering de Groot 00:00:00 3
822 De Dikketives 00:00:00 8
823 Netzogek 00:00:00 8
824 Stumpers 00:00:00 5
825 Pijffers 00:00:00 5
826 Luuk pro 00:00:00 6
827 brisa 00:00:00 12
828 Maasdammertjes 00:00:00 9
829 222 00:00:00 8
830 Wellmansjes 00:00:00 12
831 koppelhoentje 00:00:00 11
832 Bende van Ellende 00:00:00 9
833 Molletjes 00:00:00 0
834 De boompjes 00:00:00 12
835 K3 00:00:00 8
836 Swennies 00:00:00 8
837 Duutshoffies 00:00:00 3
838 Jansen 00:00:00 4
839 Planet rose 00:00:00 7
840 Pasenclub2021 00:00:00 9
841 Mysterie W51 00:00:00 7
842 Ouderkerkjes 00:00:00 9
843 Zeewolde 00:00:00 3
844 Denkers 00:00:00 2
845 Jimmy 00:00:00 6
846 De geheimzinnige club 00:00:00 4
847 De Rakkers 00:00:00 6
848 KAAS 00:00:00 4
849 stevens 00:00:00 6
850 Strampel 00:00:00 7
851 Sukkels 00:00:00 7
852 Vasco 00:00:00 5
853 Landal 00:00:00 12
854 Balzak 00:00:00 4
855 Pino’s 00:00:00 7
856 The Bugs 00:00:00 8
857 Ninjago 00:00:00 11
858 Boskampies 00:00:00 11
859 Lovebirds 00:00:00 11
860 KelDar 00:00:00 4
861 Brak 00:00:00 4
862 Loenatiks 00:00:00 4
863 Fredjes 00:00:00 8
864 Vennik 00:00:00 2
865 Bartels1 00:00:00 0
866 Bartels 00:00:00 2
867 Portugaaltjes 00:00:00 5
868 De 9 musketiers 00:00:00 6
869 De beugels 00:00:00 5
870 Minkeisjarig 00:00:00 1
871 Fromthemountain 00:00:00 2
872 Harem 00:00:00 5
873 Team Smeets 00:00:00 7
874 Camping tokkies 00:00:00 12
875 Animatie team Kuierpad 2021 00:00:00 2
876 Hatseflats 00:00:00 12
877 Pro's 00:00:00 3
878 Hangover 4 00:00:00 3
879 Het blauwe leger ESD 00:00:00 4
880 Siek & Krul 00:00:00 4
881 Hollandscheveld 00:00:00 5
882 zwijnen 00:00:00 3
883 De krakers 00:00:00 10
884 FIOD 00:00:00 4
885 Lonzo 00:00:00 4
886 Eijkjes 00:00:00 9
887 Goof&Co 00:00:00 3
888 Odd squad 00:00:00 9
889 Bussink Power 00:00:00 4
890 Half seuvm 00:00:00 4
891 Wij laten ons niet kisten 00:00:00 1
892 The beagles 00:00:00 1
893 Huisjes 00:00:00 7
894 JarigeJoost 00:00:00 1
895 De lemelaars 00:00:00 6
896 De onesies 00:00:00 10
897 BB33 00:00:00 0
898 Friesland 00:00:00 6
899 Smitoverweghekmanpas 00:00:00 1
900 De douane 00:00:00 10
901 Malden's Hoop 00:00:00 6
902 Yin14jaar 00:00:00 8
903 Boel 00:00:00 9
904 VdH 00:00:00 10
905 Team Sammie 00:00:00 3
906 De Kort Kanjers 00:00:00 4
907 Codekrakers 00:00:00 10
908 The Black purrrrr 00:00:00 4
909 Stello 00:00:00 12
910 de Kwartels 00:00:00 1
911 515 JACUZZIHOUSE 00:00:00 8
912 Roelofsen&co 00:00:00 0
913 Brem 00:00:00 10
914 Plusjes 00:00:00 9
915 Team escape BRS 00:00:00 10
916 Boyoos 00:00:00 5
917 Souren 00:00:00 6
918 Kalka 00:00:00 11
919 Bar & Jenn 00:00:00 8
920 Wolfslag 00:00:00 12
921 Kistslopers 00:00:00 6
922 Utnaaiers en utbukers 00:00:00 8
923 De Gerdaas 00:00:00 4
924 wilbie 00:00:00 8
925 FAM VD KOLK 00:00:00 4
926 De brunies 00:00:00 4
927 Grootenleeuw 00:00:00 9
928 Kleef 00:00:00 7
929 Atz32 00:00:00 8
930 FLOVAR 00:00:00 5
931 MaLiNyJo 00:00:00 8
932 De dijkjes 00:00:00 11
933 Remco en Esther 00:00:00 12
934 LPower 00:00:00 11
935 SuperSanne 00:00:00 7
936 De Hermansjes 00:00:00 7
937 De Ruchti's 00:00:00 6
938 De pilspiraten 00:00:00 5
939 FreePuck 00:00:00 5
940 Voorentjes 00:00:00 2
941 Jonkman 00:00:00 11
942 Roel&Irma 00:00:00 3
943 8 BALL 00:00:00 6
944 Gerrit & Kim 00:00:00 8
945 DeMulders 00:00:00 11
946 Jo 00:00:00 3
947 Team sombrero bos hé 00:00:00 5
948 De elsbeek 00:00:00 10
949 Unlock 00:00:00 2
950 Smitne 00:00:00 4
951 Hokkies 00:00:00 2
952 Aardbei 00:00:00 4
953 Malaga 00:00:00 2
954 FEMELIE-H 00:00:00 8
955 Uil 00:00:00 10
956 Josefien10 00:00:00 1
957 Dekkertjes 00:00:00 10
958 Familie Betting 00:00:00 4
959 Boersmaatjes 00:00:00 12
960 Nijsingh 00:00:00 7
961 Appeltje biertje 00:00:00 12
962 Dirven 00:00:00 5
963 NOAH 00:00:00 11
964 Kolibri 00:00:00 8
965 Familie ratjetoe 00:00:00 7
966 Moleman 00:00:00 5
967 Enweerdoor 00:00:00 6
968 Henkies 00:00:00 7
969 Team-o 00:00:00 1
970 42 00:00:00 10
971 Wappies 00:00:00 2
972 Goudou 00:00:00 4
973 Vlotte mwannen 00:00:00 4
974 DORGST! 00:00:00 9
975 Halfje Wit 00:00:00 8
976 Kanters 00:00:00 1
977 Partyanimals 00:00:00 0
978 Bryan 00:00:00 2
979 Biggies 00:00:00 2
980 Zinger-Reiber 00:00:00 9
981 Hazen & Wezels 00:00:00 3
982 GOONIENEE 00:00:00 4
983 Tafka282 00:00:00 3
984 Bosaventuriers 00:00:00 12
985 Snelle janne 00:00:00 4
986 De groene koetjes 00:00:00 12
987 JoLaMiMa 00:00:00 3
988 De emmy's 00:00:00 8
989 Cageman 00:00:00 12
990 De aardappels 00:00:00 12
991 FriteRia 00:00:00 0
992 AVLK 00:00:00 2
993 Bijna slim 00:00:00 1
994 Loedermoeders 00:00:00 6
995 Huiskampies 00:00:00 2
996 De Boompjes 00:00:00 0
997 Tokkies uit Monnickendam 00:00:00 12
998 Bastiaansen 00:00:00 6
999 Hunters 00:00:00 12
1000 ramona 00:00:00 12
1001 De Ra BN ers 00:00:00 3
1002 De Wappies 00:00:00 5
1003 Koele Kikkers 00:00:00 11
1004 Brabo's 00:00:00 10
1005 De eendjes 00:00:00 5
1006 De Minnetjes 00:00:00 3
1007 Krukken 00:00:00 9
1008 Team Gijs 00:00:00 10
1009 Noukies 00:00:00 8
1010 Bakker 00:00:00 8
1011 De 3 musketiers 00:00:00 7
1012 Kiekieks 00:00:00 2
1013 hazelaar 00:00:00 8
1014 qwerty 00:00:00 4
1015 Team Lucas 00:00:00 3
1016 De Tuintjes 00:00:00 5
1017 Vosco 00:00:00 5
1018 SnelMil 00:00:00 5
1019 Noorderboertjes 00:00:00 5
1020 De 713-tjee 00:00:00 0
1021 TeamKreutzer 00:00:00 3
1022 De stolkse boertjes 00:00:00 4
1023 The harbor detectives 00:00:00 8
1024 Vliegende mossels 00:00:00 1
1025 De Super Pika’s 00:00:00 9
1026 De hoekschewaarders 00:00:00 5
1027 Kill the piñata 00:00:00 6
1028 Betty en patty 00:00:00 10
1029 Werffie's 00:00:00 4
1030 CasperDekkers! 00:00:00 7
1031 Elpies 00:00:00 11
1032 Team Valerie 00:00:00 3
1033 Team Sneek 00:00:00 6
1034 De-Bingo-Winners 00:00:00 7
1035 Langeberg 00:00:00 5
1036 Spijker6 00:00:00 8
1037 3 coolste BFF’S 00:00:00 7
1038 Sherlock Hoos 00:00:00 4
1039 Dream team 00:00:00 3
1040 Roversbende 00:00:00 7
1041 Depoep 00:00:00 6
1042 Huisje305 00:00:00 7
1043 De smints 00:00:00 8
1044 The Jacobs Family 00:00:00 7
1045 Sharks 00:00:00 4
1046 Plantebakjes 00:00:00 0
1047 De Coole Kippen 00:00:00 4
1048 Het is gezelliger zonder joey en tom 00:00:00 0
1049 Jaapenlusanne 00:00:00 10
1050 KWEC 00:00:00 10
1051 SUSSYBAKA's 00:00:00 2
1052 Hovestadjes 00:00:00 10
1053 Meijer 00:00:00 0
1054 Gezelligheid op Coldenhove 00:00:00 9
1055 Arends 00:00:00 8
1056 Mystery M’s 00:00:00 8
1057 Schreursjes 00:00:00 12
1058 Van Marion 00:00:00 8
1059 Team krab 00:00:00 12
1060 De Bolle Bollo’s 00:00:00 5
1061 MoBaInRu 00:00:00 3
1062 LiFloSaMen 00:00:00 12
1063 C 00:00:00 4
1064 Escape Squad 00:00:00 11
1065 Schneidertjes 00:00:00 0
1066 Snepvangers 00:00:00 9
1067 Kechies 00:00:00 0
1068 Ummy gang 00:00:00 5
1069 Smarties 00:00:00 2
1070 VanAken 00:00:00 7
1071 lolmans 00:00:00 8
1072 aerdts 00:00:00 3
1073 veenvell 00:00:00 3
1074 Veenvell 00:00:00 11
1075 Captain SpackJarrow 00:00:00 6
1076 Lasange 00:00:00 8
1077 Franken 00:00:00 7
1078 De kraanvogels 00:00:00 8
1079 00:00:00 10
1080 Aardbeien 00:00:00 4
1081 fam Kleinjan 00:00:00 4
1082 Polmo 00:00:00 4
1083 De Nozems 00:00:00 11
1084 DeGraaf 00:00:00 4
1085 Peller 00:00:00 5
1086 Janneke en matthijs 00:00:00 5
1087 De baaltjes 00:00:00 10
1088 Stippie en Strepie 00:00:00 6
1089 Dupger 00:00:00 2
1090 Wokko&Plonty 00:00:00 8
1091 Loopy Lions 00:00:00 0
1092 Lizzy 00:00:00 5
1093 De Roze olifant 00:00:00 9
1094 Kiren 00:00:00 6
1095 Dreistein 00:00:00 4
1096 Fam.Schellekens 00:00:00 8
1097 Bollo327 00:00:00 12
1098 Janssen 00:00:00 11
1099 Scholten 00:00:00 2
1100 Sterrehiem 00:00:00 8
1101 Blinckies 23:59:59 6